Location: Cheyres
(46.8153°N, 6.7877°E)
Time: 01:16:11
(UTC+00:00)

Cosmos 1328 Rocket - Pass Details

Date: 21 September 2021
Orbit: 601 x 627 km, 82.5° (Epoch: 19 October)

Event Time Altitude Azimuth Distance (km) Brightness Sun altitude
Exits shadow 02:02:05 - 120° (ESE) 2,325 6.7 -31.5°
Reaches altitude 10° 02:04:00 10° 99° (E) 1,964 6.5 -31.3°
Maximum altitude 02:05:15 11° 82° (E) 1,889 6.7 -31.1°
Drops below altitude 10° 02:06:31 10° 65° (ENE) 1,965 6.9 -31.0°
Sets 02:10:20 0° 30° (NNE) 2,871 8.0 -30.5°
